SCP
0 0 0 0 0 -0 0 -0 -0 -0 0 0 0 0 0 0 0 0 0 -0 0 0 -0 -0 0 0 0 -0 -0 -0 0 0 0 0 0 0 0 0 -0 0 -0 0 0
0 0 0 0 0 0 0 0 0 0 0 0 0 0 0 0 -0 -0 -0 -0 -0 -0 -0 -0 0 0 0 -0 -0 -0 -0 0 0 0 0 0 0 0 0 0 0 0 0
0 0 -0 0 -0 0 0 0 0 0 0 0 0 0 0 0 -0 -0 0 0 0 0 -0 -0 0 0 0 -0 0 -0 -0 0 0 0 0 0 0 0 0 0 0 0 -0
0 0 -0 -0 0 0 0 -0 0 0 0 -0 -0 0 -0 -0 0 0 0 0 0 0 0 0 0 0 0 0 -0 0 0 0 0 0 0 0 0 0 0 0 0 0 -0
0 0 -0 -0 0 0 0 -0 -0 -0 -0 -0 0 0 0 0 0 0 0 0 0 0 0 0 0 0 0 0 0 0 0 0 0 -0 0 0 0 0 0 0 0 0 0
-0 -0 -0 0 0 0 0 -0 -0 0 0 -0 -0 -0 -0 -0 0 0 0 0 0 0 0 0 0 0 0 0 0 0 0 -0 0 -0 0 0 0 0 0 -0 0 -0 -0
-0 -0 -0 0 0 0 0 0 0 0 0 0 0 0 -0 -0 -0 -0 -0 0 0 0 0 0 0 0 0 -0 0 -0 -0 -0 -0 -0 -0 -0 0 -0 -0 -0 -0 -0 -0
-0 -0 -0 -0 0 0 0 -0 -0 -0 -0 -0 0 0 0 0 0 -0 -0 0 0 0 0 0 0 0 0 -0 0 -0 -0 -0 -0 -0 -0 0 0 -0 -0 -0 -0 -0 -0
-0 -0 -0 -0 0 -0 -0 -0 -0 -0 -0 -0 -0 -0 -0 -0 -0 -0 -0 0 -0 -0 -0 -0 -0 -0 -0 -0 -0 -0 -0 -0 -0 -0 -0 0 -0 -0 -0 -0 -0 -0 -0
-0 -0 -0 -0 -0 -0 -0 -0 -0 -0 -0 -0 -0 -0 -0 -0 0 -0 0 -0 -0 -0 -0 -0 -0 -0 0 -0 -0 0 -0 -0 0 -0 -0 0 0 -0 -0 -0 -0 -0 -0
-0 -0 -0 -0 -0 -0 -0 -0 -0 -0 -0 -0 -0 -0 0 -0 0 0 0 0 0 -0 -0 -0 0 -0 -0 0 -0 -0 -0 0 -0 -0 -0 -0 0 -0 -0 -0 -0 -0 -0
0 -0 -0 -0 -0 -0 -0 -0 -0 -0 -0 -0 -0 0 0 0 0 0 -0 0 0 0 -0 0 0 -0 0 0 -0 0 0 0 -0 -0 -0 -0 0 -0 -0 -0 -0 -0 -0
-0 -0 -0 -0 -0 -0 -0 -0 -0 -0 -0 -0 -0 0 0 -0 0 0 0 0 0 0 0 0 0 0 0 0 -0 -0 -0 0 -0 -0 0 -0 0 -0 0 0 -0 -0 -0
-0 -0 -0 -0 -0 -0 -0 -0 -0 -0 -0 -0 -0 0 0 0 -0 -0 0 0 0 0 0 0 0 0 0 0 0 -0 -0 -0 0 0 0 0 0 0 -0 -0 -0 -0 -0
0 0 -0 -0 -0 -0 -0 -0 -0 -0 -0 -0 0 0 0 0 0 -0 -0 0 0 0 0 0 0 0 -0 -0 -0 0 0 0 0 0 0 0 0 0 0 -0 -0 -0 -0
-0 0 -0 0 -0 -0 -0 -0 -0 -0 -0 0 0 0 0 0 0 0 -0 0 0 0 0 0 0 -0 -0 -0 -0 -0 0 0 0 0 0 0 0 0 0 0 0 -0 -0
-0 -0 -0 0 0 -0 0 -0 -0 -0 -0 0 0 0 0 0 0 0 0 -0 -0 0 0 -0 -0 -0 -0 -0 -0 -0 -0 0 0 0 0 0 0 0 0 0 0 0 0
-0 -0 -0 -0 -0 -0 -0 0 0 0 0 0 0 0 0 0 0 0 0 0 0 0 0 0 0 0 0 -0 -0 -0 -0 0 0 0 0 0 0 0 0 0 0 0 0
-0 -0 -0 -0 -0 -0 -0 -0 -0 -0 0 0 0 0 0 0 0 0 0 0 0 0 0 0 0 0 0 0 0 -0 0 -0 -0 0 0 0 0 0 0 0 0 0 0
-0 -0 -0 -0 -0 -0 -0 -0 -0 -0 -0 0 0 0 0 0 0 0 0 0 0 0 0 0 0 0 0 0 0 0 0 0 0 0 0 0 0 0 0 0 0 0 0
-0 -0 -0 -0 -0 -0 -0 -0 0 0 0 0 0 -0 0 0 0 0 0 0 0 0 0 0 0 0 0 0 0 0 0 0 0 0 0 0 0 0 0 0 0 0 0
-0 -0 -0 -0 -0 -0 -0 0 0 0 0 0 0 0 0 0 0 0 0 0 0 0 0 0 0 0 0 0 0 0 0 0 0 0 0 0 0 0 0 0 0 0 0
-0 -0 -0 -0 -0 -0 -0 0 0 0 0 0 0 0 0 0 0 0 0 0 0 0 0 0 0 0 0 0 0 0 0 0 0 0 0 0 0 0 0 0 0 0 0
-0 0 0 -0 0 -0 0 0 0 0 0 0 0 0 0 0 0 0 0 0 0 0 0 0 0 0 0 0 0 0 0 0 0 0 0 0 0 0 0 0 0 0 0
0 0 -0 -0 -0 -0 0 0 0 0 0 0 0 0 0 0 0 0 0 0 0 0 0 0 0 0 0 0 0 0 0 0 0 0 0 0 0 0 0 0 0 0 0
0 0 0 -0 -0 -0 -0 0 0 0 0 0 0 0 0 0 0 0 0 0 0 0 0 0 0 0 0 0 0 0 0 0 0 0 0 0 0 0 0 0 0 0 0
Wind_Speed_500mb
37 41 41 50 54 54 53 47 47 48 43 43 43 49 49 51 48 41 38 30 27 24 22 20 17 13 12 14 13 12 10 8 7 9 8 9 9 9 10 9 10 6 10
37 37 43 50 45 46 47 44 46 44 47 48 54 51 47 43 38 33 31 23 22 21 21 18 15 15 15 12 16 15 12 9 7 9 9 8 8 6 7 7 8 13 16
39 40 45 48 45 45 47 47 47 46 51 58 49 41 39 38 35 33 29 22 19 17 17 15 15 15 16 16 17 18 15 10 9 6 8 11 7 10 8 5 10 15 15
45 47 48 47 47 48 48 46 46 48 54 55 39 37 38 40 38 33 27 21 17 15 13 10 9 10 13 14 15 15 14 11 6 4 4 6 8 5 3 3 11 14 17
46 45 46 45 45 46 46 45 46 48 50 45 42 38 37 38 33 26 22 19 15 12 8 6 6 8 13 14 14 12 11 10 5 4 6 3 6 3 4 6 16 13 21
47 45 44 44 44 48 48 48 48 47 44 42 37 31 31 31 27 21 20 16 11 5 4 4 5 7 10 12 11 9 8 5 8 8 9 2 3 4 6 10 17 17 18
47 43 43 44 47 49 49 49 47 43 40 38 35 32 29 27 23 19 15 8 2 1 4 4 6 8 7 8 6 5 6 2 3 1 6 11 2 3 8 6 13 18 15
46 44 44 45 48 49 48 45 42 39 37 36 33 29 24 21 16 11 6 1 0 3 1 5 8 9 7 5 3 4 3 4 1 6 12 11 6 5 8 12 13 17 21
44 44 45 47 48 46 42 38 35 33 32 31 25 21 18 16 12 6 2 1 3 4 7 9 9 9 6 4 5 5 3 3 1 4 7 7 7 8 7 9 15 17 19
42 41 43 46 44 42 39 35 32 30 28 25 22 19 17 12 8 6 2 6 4 6 8 8 7 8 5 5 3 6 4 2 3 3 9 8 10 9 10 11 14 18 21
41 40 41 42 42 40 36 35 30 28 25 21 21 17 12 7 6 4 9 6 10 5 7 8 8 10 8 6 7 8 8 7 5 4 1 7 11 13 11 15 14 15 20
45 41 37 39 40 39 37 34 29 25 22 18 17 15 7 3 5 6 6 12 15 5 5 6 7 12 12 9 12 16 17 14 14 10 8 13 10 15 17 14 17 17 21
48 45 41 36 36 37 34 30 26 23 21 20 18 16 9 5 4 6 8 10 9 11 9 9 11 12 14 13 16 20 18 17 15 16 14 20 14 16 22 17 18 20 21
50 44 42 38 36 33 27 27 24 24 22 21 21 15 9 9 7 4 6 10 12 16 16 15 18 21 21 22 25 27 21 21 21 21 17 19 16 15 21 23 20 23 23
47 44 43 37 36 34 33 26 25 23 25 21 18 21 18 13 14 9 11 15 16 17 21 20 20 22 26 28 24 23 24 27 24 22 20 20 21 19 21 27 22 23 27
42 46 38 38 34 37 36 31 22 27 27 27 23 23 20 18 17 15 19 21 20 19 21 23 26 27 28 30 26 25 26 25 25 23 26 24 24 23 24 25 29 26 26
42 46 40 34 38 35 30 30 26 26 28 30 26 27 24 22 20 20 19 17 18 21 21 25 25 27 28 28 26 25 25 24 26 27 22 25 27 30 28 28 31 32 30
45 44 40 37 33 35 31 26 27 24 28 29 29 29 28 28 27 28 24 20 23 26 27 25 27 25 23 27 30 30 28 25 25 27 29 30 34 30 31 33 32 32 34
45 45 46 46 40 35 34 32 33 34 37 36 36 33 33 29 28 34 29 24 28 28 26 24 22 24 22 24 27 27 24 20 20 23 23 29 33 34 36 37 35 35 36
41 41 44 43 36 30 28 32 35 36 42 44 41 34 33 33 30 27 26 30 30 22 18 20 23 26 27 25 26 27 22 15 11 10 13 16 20 34 36 38 38 38 39
44 44 45 44 37 36 39 39 37 33 28 32 31 31 34 37 33 27 24 20 18 24 21 19 23 24 22 25 28 26 17 15 3 7 6 6 10 17 29 39 42 35 44
50 48 45 42 39 39 39 32 28 24 25 24 26 27 26 23 19 18 18 25 28 23 20 21 21 23 22 19 23 23 16 5 3 18 14 14 17 17 14 18 22 30 39
57 52 49 44 42 38 31 28 30 29 25 23 25 24 18 17 16 20 25 17 11 4 9 18 22 22 19 15 15 11 7 6 33 9 12 18 17 17 19 20 22 24 25
58 52 47 48 45 42 35 35 28 23 23 22 23 23 22 20 17 16 12 6 10 7 18 17 16 17 18 16 12 10 9 13 11 15 20 19 20 20 19 22 28 32 36
57 59 51 51 49 45 43 37 29 25 24 23 24 22 25 20 17 15 14 11 13 16 20 12 11 10 11 11 8 10 6 5 5 14 28 36 28 26 25 22 20 24 28
62 61 55 56 53 48 46 40 34 28 23 24 29 28 27 18 15 17 18 15 14 23 15 9 5 8 7 5 5 7 7 9 14 13 21 31 36 35 26 22 26 30 26
Wind_Direction_500mb
130 127 136 139 133 132 136 135 137 140 138 133 135 135 135 135 133 131 128 120 109 111 111 105 99 96 88 78 64 62 55 55 90 114 109 104 93 100 102 97 65 100 138
133 137 140 143 137 138 139 140 142 141 137 136 131 129 133 140 143 142 142 127 116 114 112 109 104 91 80 65 59 54 53 57 101 116 93 80 77 59 64 75 69 111 128
137 138 136 141 140 138 137 141 142 142 141 139 132 131 135 140 142 142 142 133 118 111 111 101 88 79 61 46 37 35 47 73 80 147 112 72 70 81 79 44 101 122 125
134 136 137 139 139 139 139 140 139 140 145 148 138 132 134 135 133 132 134 131 124 115 109 106 94 68 43 31 30 29 40 64 102 141 145 80 74 104 100 101 117 139 142
137 137 137 140 141 140 142 142 141 140 144 147 141 136 135 139 143 136 136 133 131 123 114 88 61 34 16 15 16 24 48 56 101 140 167 32 57 86 100 133 132 149 148
141 141 142 145 144 145 144 143 143 143 146 147 149 146 144 147 152 143 138 135 124 99 82 58 18 1 0 8 5 32 64 42 67 107 168 180 77 84 113 94 136 136 146
143 147 147 150 149 147 148 149 150 151 153 156 155 149 150 152 150 144 138 134 103 130 107 30 352 338 338 347 343 4 64 141 86 124 171 212 188 119 136 166 146 161 161
150 150 152 154 155 154 154 155 155 153 152 151 150 148 150 152 153 147 155 209 197 159 35 335 326 318 309 316 324 352 327 315 179 187 194 194 213 191 175 193 174 166 163
155 155 156 158 160 161 164 164 163 161 162 162 161 158 157 161 161 165 212 275 221 285 310 316 322 325 308 321 352 6 309 347 200 176 228 167 208 218 201 186 186 178 172
166 164 163 165 165 166 167 168 164 166 167 173 177 175 174 167 174 195 275 309 301 299 324 317 339 351 341 323 346 16 5 280 286 209 283 235 244 225 228 205 197 191 187
176 173 173 175 176 177 176 170 169 170 172 171 176 180 185 191 222 234 272 317 299 339 337 326 351 342 353 352 330 318 320 307 279 294 268 271 261 243 237 219 213 202 200
179 177 177 180 181 182 185 186 184 185 181 184 182 189 194 221 253 288 294 306 262 258 316 302 322 334 339 311 303 313 290 289 290 282 260 264 287 261 248 226 218 214 214
184 185 182 183 185 187 186 187 188 188 192 196 196 207 245 236 256 322 297 303 304 289 292 310 346 356 7 342 317 300 294 289 285 276 286 263 282 267 246 245 231 221 224
185 185 182 186 190 189 192 196 192 193 193 199 204 215 241 256 275 296 326 315 307 289 304 323 332 328 329 324 310 310 289 278 282 294 278 260 262 277 257 248 241 231 229
191 185 188 187 191 185 191 195 189 190 190 188 213 229 241 242 263 283 298 309 304 289 294 296 306 306 310 311 315 308 302 280 282 278 279 262 257 268 266 248 254 250 235
194 191 188 193 193 191 195 196 202 207 213 218 232 232 247 253 261 285 289 286 295 298 296 298 301 298 303 305 303 299 294 287 281 264 271 260 262 264 260 260 249 255 252
194 196 195 195 194 199 205 213 224 226 236 232 240 244 256 254 269 282 278 278 287 296 290 294 297 299 304 308 309 306 300 291 289 274 266 251 256 267 255 253 259 252 254
202 204 203 201 210 218 218 218 228 237 241 245 249 259 262 262 262 270 282 286 290 296 289 288 291 295 307 313 314 316 310 295 294 284 272 265 266 261 259 252 252 261 258
207 209 205 208 220 224 224 230 231 241 243 246 248 255 258 260 269 275 278 271 283 295 288 286 292 303 314 312 314 318 320 310 298 290 283 268 264 265 262 258 262 263 261
211 213 212 214 221 222 227 229 232 240 239 240 245 244 248 252 261 265 265 283 296 293 287 291 298 309 319 319 321 324 328 331 321 317 304 287 281 264 257 260 262 267 268
215 213 215 215 216 216 216 226 230 237 235 236 237 243 245 248 259 272 284 285 282 288 288 291 301 307 318 323 325 327 344 327 199 56 38 6 327 311 265 257 261 266 263
214 213 213 218 220 217 218 225 235 238 233 230 222 231 241 243 251 271 274 278 276 270 277 289 296 300 311 319 325 337 347 45 119 337 332 323 316 324 314 279 275 272 268
213 214 214 216 216 216 214 217 228 228 230 218 217 231 246 234 249 271 279 278 263 266 297 298 294 297 305 315 322 329 336 300 328 336 360 351 334 317 300 288 283 285 283
213 213 216 211 209 212 217 219 227 236 233 237 239 236 242 235 263 262 269 241 174 296 308 295 278 284 289 297 309 315 324 318 326 323 336 352 348 337 313 289 281 278 276
210 210 211 209 210 212 218 219 218 226 236 246 249 220 223 237 271 254 257 242 247 286 302 285 285 283 290 295 315 324 318 310 274 319 327 338 340 352 347 343 320 301 286
206 208 209 213 212 211 211 215 223 228 241 245 237 227 222 248 263 258 245 252 284 303 291 296 300 303 283 285 323 9 4 342 320 313 318 332 335 343 359 359 352 352 340
Wind_Speed_850mb
37 41 41 50 54 54 53 47 47 48 43 43 43 49 49 51 48 41 38 30 27 24 22 20 17 13 12 14 13 12 10 8 7 9 8 9 9 9 10 9 10 6 10
37 37 43 50 45 46 47 44 46 44 47 48 54 51 47 43 38 33 31 23 22 21 21 18 15 15 15 12 16 15 12 9 7 9 9 8 8 6 7 7 8 13 16
39 40 45 48 45 45 47 47 47 46 51 58 49 41 39 38 35 33 29 22 19 17 17 15 15 15 16 16 17 18 15 10 9 6 8 11 7 10 8 5 10 15 15
45 47 48 47 47 48 48 46 46 48 54 55 39 37 38 40 38 33 27 21 17 15 13 10 9 10 13 14 15 15 14 11 6 4 4 6 8 5 3 3 11 14 17
46 45 46 45 45 46 46 45 46 48 50 45 42 38 37 38 33 26 22 19 15 12 8 6 6 8 13 14 14 12 11 10 5 4 6 3 6 3 4 6 16 13 21
47 45 44 44 44 48 48 48 48 47 44 42 37 31 31 31 27 21 20 16 11 5 4 4 5 7 10 12 11 9 8 5 8 8 9 2 3 4 6 10 17 17 18
47 43 43 44 47 49 49 49 47 43 40 38 35 32 29 27 23 19 15 8 2 1 4 4 6 8 7 8 6 5 6 2 3 1 6 11 2 3 8 6 13 18 15
46 44 44 45 48 49 48 45 42 39 37 36 33 29 24 21 16 11 6 1 0 3 1 5 8 9 7 5 3 4 3 4 1 6 12 11 6 5 8 12 13 17 21
44 44 45 47 48 46 42 38 35 33 32 31 25 21 18 16 12 6 2 1 3 4 7 9 9 9 6 4 5 5 3 3 1 4 7 7 7 8 7 9 15 17 19
42 41 43 46 44 42 39 35 32 30 28 25 22 19 17 12 8 6 2 6 4 6 8 8 7 8 5 5 3 6 4 2 3 3 9 8 10 9 10 11 14 18 21
41 40 41 42 42 40 36 35 30 28 25 21 21 17 12 7 6 4 9 6 10 5 7 8 8 10 8 6 7 8 8 7 5 4 1 7 11 13 11 15 14 15 20
45 41 37 39 40 39 37 34 29 25 22 18 17 15 7 3 5 6 6 12 15 5 5 6 7 12 12 9 12 16 17 14 14 10 8 13 10 15 17 14 17 17 21
48 45 41 36 36 37 34 30 26 23 21 20 18 16 9 5 4 6 8 10 9 11 9 9 11 12 14 13 16 20 18 17 15 16 14 20 14 16 22 17 18 20 21
50 44 42 38 36 33 27 27 24 24 22 21 21 15 9 9 7 4 6 10 12 16 16 15 18 21 21 22 25 27 21 21 21 21 17 19 16 15 21 23 20 23 23
47 44 43 37 36 34 33 26 25 23 25 21 18 21 18 13 14 9 11 15 16 17 21 20 20 22 26 28 24 23 24 27 24 22 20 20 21 19 21 27 22 23 27
42 46 38 38 34 37 36 31 22 27 27 27 23 23 20 18 17 15 19 21 20 19 21 23 26 27 28 30 26 25 26 25 25 23 26 24 24 23 24 25 29 26 26
42 46 40 34 38 35 30 30 26 26 28 30 26 27 24 22 20 20 19 17 18 21 21 25 25 27 28 28 26 25 25 24 26 27 22 25 27 30 28 28 31 32 30
45 44 40 37 33 35 31 26 27 24 28 29 29 29 28 28 27 28 24 20 23 26 27 25 27 25 23 27 30 30 28 25 25 27 29 30 34 30 31 33 32 32 34
45 45 46 46 40 35 34 32 33 34 37 36 36 33 33 29 28 34 29 24 28 28 26 24 22 24 22 24 27 27 24 20 20 23 23 29 33 34 36 37 35 35 36
41 41 44 43 36 30 28 32 35 36 42 44 41 34 33 33 30 27 26 30 30 22 18 20 23 26 27 25 26 27 22 15 11 10 13 16 20 34 36 38 38 38 39
44 44 45 44 37 36 39 39 37 33 28 32 31 31 34 37 33 27 24 20 18 24 21 19 23 24 22 25 28 26 17 15 3 7 6 6 10 17 29 39 42 35 44
50 48 45 42 39 39 39 32 28 24 25 24 26 27 26 23 19 18 18 25 28 23 20 21 21 23 22 19 23 23 16 5 3 18 14 14 17 17 14 18 22 30 39
57 52 49 44 42 38 31 28 30 29 25 23 25 24 18 17 16 20 25 17 11 4 9 18 22 22 19 15 15 11 7 6 33 9 12 18 17 17 19 20 22 24 25
58 52 47 48 45 42 35 35 28 23 23 22 23 23 22 20 17 16 12 6 10 7 18 17 16 17 18 16 12 10 9 13 11 15 20 19 20 20 19 22 28 32 36
57 59 51 51 49 45 43 37 29 25 24 23 24 22 25 20 17 15 14 11 13 16 20 12 11 10 11 11 8 10 6 5 5 14 28 36 28 26 25 22 20 24 28
62 61 55 56 53 48 46 40 34 28 23 24 29 28 27 18 15 17 18 15 14 23 15 9 5 8 7 5 5 7 7 9 14 13 21 31 36 35 26 22 26 30 26
Wind_Direction_850mb
130 127 136 139 133 132 136 135 137 140 138 133 135 135 135 135 133 131 128 120 109 111 111 105 99 96 88 78 64 62 55 55 90 114 109 104 93 100 102 97 65 100 138
133 137 140 143 137 138 139 140 142 141 137 136 131 129 133 140 143 142 142 127 116 114 112 109 104 91 80 65 59 54 53 57 101 116 93 80 77 59 64 75 69 111 128
137 138 136 141 140 138 137 141 142 142 141 139 132 131 135 140 142 142 142 133 118 111 111 101 88 79 61 46 37 35 47 73 80 147 112 72 70 81 79 44 101 122 125
134 136 137 139 139 139 139 140 139 140 145 148 138 132 134 135 133 132 134 131 124 115 109 106 94 68 43 31 30 29 40 64 102 141 145 80 74 104 100 101 117 139 142
137 137 137 140 141 140 142 142 141 140 144 147 141 136 135 139 143 136 136 133 131 123 114 88 61 34 16 15 16 24 48 56 101 140 167 32 57 86 100 133 132 149 148
141 141 142 145 144 145 144 143 143 143 146 147 149 146 144 147 152 143 138 135 124 99 82 58 18 1 0 8 5 32 64 42 67 107 168 180 77 84 113 94 136 136 146
143 147 147 150 149 147 148 149 150 151 153 156 155 149 150 152 150 144 138 134 103 130 107 30 352 338 338 347 343 4 64 141 86 124 171 212 188 119 136 166 146 161 161
150 150 152 154 155 154 154 155 155 153 152 151 150 148 150 152 153 147 155 209 197 159 35 335 326 318 309 316 324 352 327 315 179 187 194 194 213 191 175 193 174 166 163
155 155 156 158 160 161 164 164 163 161 162 162 161 158 157 161 161 165 212 275 221 285 310 316 322 325 308 321 352 6 309 347 200 176 228 167 208 218 201 186 186 178 172
166 164 163 165 165 166 167 168 164 166 167 173 177 175 174 167 174 195 275 309 301 299 324 317 339 351 341 323 346 16 5 280 286 209 283 235 244 225 228 205 197 191 187
176 173 173 175 176 177 176 170 169 170 172 171 176 180 185 191 222 234 272 317 299 339 337 326 351 342 353 352 330 318 320 307 279 294 268 271 261 243 237 219 213 202 200
179 177 177 180 181 182 185 186 184 185 181 184 182 189 194 221 253 288 294 306 262 258 316 302 322 334 339 311 303 313 290 289 290 282 260 264 287 261 248 226 218 214 214
184 185 182 183 185 187 186 187 188 188 192 196 196 207 245 236 256 322 297 303 304 289 292 310 346 356 7 342 317 300 294 289 285 276 286 263 282 267 246 245 231 221 224
185 185 182 186 190 189 192 196 192 193 193 199 204 215 241 256 275 296 326 315 307 289 304 323 332 328 329 324 310 310 289 278 282 294 278 260 262 277 257 248 241 231 229
191 185 188 187 191 185 191 195 189 190 190 188 213 229 241 242 263 283 298 309 304 289 294 296 306 306 310 311 315 308 302 280 282 278 279 262 257 268 266 248 254 250 235
194 191 188 193 193 191 195 196 202 207 213 218 232 232 247 253 261 285 289 286 295 298 296 298 301 298 303 305 303 299 294 287 281 264 271 260 262 264 260 260 249 255 252
194 196 195 195 194 199 205 213 224 226 236 232 240 244 256 254 269 282 278 278 287 296 290 294 297 299 304 308 309 306 300 291 289 274 266 251 256 267 255 253 259 252 254
202 204 203 201 210 218 218 218 228 237 241 245 249 259 262 262 262 270 282 286 290 296 289 288 291 295 307 313 314 316 310 295 294 284 272 265 266 261 259 252 252 261 258
207 209 205 208 220 224 224 230 231 241 243 246 248 255 258 260 269 275 278 271 283 295 288 286 292 303 314 312 314 318 320 310 298 290 283 268 264 265 262 258 262 263 261
211 213 212 214 221 222 227 229 232 240 239 240 245 244 248 252 261 265 265 283 296 293 287 291 298 309 319 319 321 324 328 331 321 317 304 287 281 264 257 260 262 267 268
215 213 215 215 216 216 216 226 230 237 235 236 237 243 245 248 259 272 284 285 282 288 288 291 301 307 318 323 325 327 344 327 199 56 38 6 327 311 265 257 261 266 263
214 213 213 218 220 217 218 225 235 238 233 230 222 231 241 243 251 271 274 278 276 270 277 289 296 300 311 319 325 337 347 45 119 337 332 323 316 324 314 279 275 272 268
213 214 214 216 216 216 214 217 228 228 230 218 217 231 246 234 249 271 279 278 263 266 297 298 294 297 305 315 322 329 336 300 328 336 360 351 334 317 300 288 283 285 283
213 213 216 211 209 212 217 219 227 236 233 237 239 236 242 235 263 262 269 241 174 296 308 295 278 284 289 297 309 315 324 318 326 323 336 352 348 337 313 289 281 278 276
210 210 211 209 210 212 218 219 218 226 236 246 249 220 223 237 271 254 257 242 247 286 302 285 285 283 290 295 315 324 318 310 274 319 327 338 340 352 347 343 320 301 286
206 208 209 213 212 211 211 215 223 228 241 245 237 227 222 248 263 258 245 252 284 303 291 296 300 303 283 285 323 9 4 342 320 313 318 332 335 343 359 359 352 352 340